Regional Weather Roundup
Issued by NWS

Home | Current Version | Previous Version | Text Only | Print | Product List | Glossary Off
Versions: 1 2 3 4 5 6 7 8 9 10 11 12 13 14 15 16 17 18 19 20 21 22 23 24 25 26 27 28 29 30 31 32 33 34 35 36 37 38 39 40 41 42 43 44 45 46 47 48 49 50

000
ASUS43 KMKX 200900
RWRWI

WISCONSIN REGIONAL WEATHER ROUNDUP
NATIONAL WEATHER SERVICE MILWAUKEE/SULLIVAN WI
400 AM CDT SUN APR 20 2014

NOTE: "FAIR" INDICATES FEW OR NO CLOUDS BELOW 12,000 FEET WITH NO
SIGNIFICANT WEATHER AND/OR OBSTRUCTIONS TO VISIBILITY.

WIZ001-002-006>008-014>016-023>028-201000-
NORTHWEST WISCONSIN

CITY           SKY/WX    TMP DP  RH WIND       PRES   REMARKS
SUPERIOR ARPT  CLEAR     26  26  98 CALM      30.03R FOG
ASHLAND        PTCLDY    37  37 100 W3        30.02S FOG
HAYWARD        MOCLDY    36  34  92 CALM      30.03R
SIREN          PTCLDY    35  34  97 CALM      30.02S
RICE LAKE      CLOUDY    48  47  95 CALM      30.04S FOG
LADYSMITH      LGT RAIN  50  46  86 S5        30.05S
EAU CLAIRE     NOT AVBL
MENOMONIE      CLOUDY    52  46  80 CALM      30.03S
NEW RICHMOND   LGT RAIN  51  51 100 SE3       30.02S
OSCEOLA        FOG       47  47 100 CALM      30.04S VSB 1/4
$$

WIZ003>005-009-010-017-018-201000-
NORTH CENTRAL WISCONSIN

CITY           SKY/WX    TMP DP  RH WIND       PRES   REMARKS
WOODRUFF       CLOUDY    47  38  72 S7        30.04S
RHINELANDER    LGT RAIN  47  37  68 S6        30.07S
EAGLE RIVER    CLOUDY    42  38  83 S3        30.05S
LAND O LAKES   CLOUDY    46  37  70 S3        30.06S
PHILLIPS       LGT RAIN  48  43  81 S6        30.03S
TOMAHAWK       CLOUDY    41  39  93 CALM      30.06S
MEDFORD        CLOUDY    49  42  77 CALM      30.06S
MERRILL        CLOUDY    53  40  62 CALM      30.08R
$$

WIZ029-030-035-036-043>047-201000-
CENTRAL WISCONSIN

CITY           SKY/WX    TMP DP  RH WIND       PRES   REMARKS
WAUSAU         CLOUDY    50  41  71 S7        30.06F
MOSINEE        LGT RAIN  46  43  87 SE9       30.09S
MARSHFIELD     CLOUDY    57  38  48 S7        30.07R
STEVENS POINT  CLOUDY    52  37  56 S8        30.10S
WAUPACA        CLOUDY    55  37  50 S7        30.12S
WAUTOMA        NOT AVBL
WISC RAPIDS    CLOUDY    56  36  47 S7        30.09S
CAMP DOUGLAS   NOT AVBL
$$

WIZ011>013-019>022-031-037>040-048>050-201000-
NORTHEAST WISCONSIN

CITY           SKY/WX    TMP DP  RH WIND       PRES   REMARKS
ANTIGO         DRIZZLE   43  40  89 S12       30.09F
STURGEON BAY   CLOUDY    46  34  61 S13       30.17F
GREEN BAY      CLOUDY    51  39  63 S8        30.14S
MANITOWOC      NOT AVBL
APPLETON       CLOUDY    52  36  54 S10       30.14S
CLINTONVILLE   CLOUDY    52  37  58 S3        30.12S
OSHKOSH        LGT RAIN  54  37  52 S18G29    30.13R
$$

WIZ032>034-041-042-053>061-201000-
SOUTHWEST WISCONSIN

CITY           SKY/WX    TMP DP  RH WIND       PRES   REMARKS
LA CROSSE      CLOUDY    62  38  40 S12       30.05S
SPARTA         CLOUDY    63  33  33 S6        30.07S
VIROQUA        PTSUNNY   59  37  44 S12       30.08S
BOSCOBEL       CLOUDY    63  38  39 SW7       30.10S
PRAIRIE DU CHI CLOUDY    63  36  37 S3        30.09S
PLATTEVILLE    MOCLDY    55  38  53 SE6       30.14S
$$

WIZ056-057-062-063-064-067-068-201000-
SOUTH CENTRAL WISCONSIN

CITY           SKY/WX    TMP DP  RH WIND       PRES   REMARKS
BARABOO/DELLS  CLOUDY    55  35  46 S12       30.11S
LONE ROCK      NOT AVBL
WATERTOWN      PTCLDY    50  38  63 SE6       30.16S
MADISON        MOCLDY    54  38  54 S10       30.14F
MIDDLETON      FAIR      55  35  47 S13       30.14S
MONROE         PTCLDY    52  38  58 S14       30.15S
JANESVILLE     PTCLDY    54  36  50 S12       30.16F
$$

WIZ051-052-058>065-066-070>072-201000-
SOUTHEAST WISCONSIN

CITY           SKY/WX    TMP DP  RH WIND       PRES   REMARKS
MILWAUKEE      PTCLDY    48  31  51 S9        30.20F
WAUKESHA       CLEAR     46  34  61 S9        30.20S
MILWAUKEE/TIMM PTCLDY    46  32  57 S7        30.20S
RACINE         CLEAR     46  32  58 S15       30.21F
BURLINGTON     CLEAR     35  33  92 CALM      30.19F
KENOSHA        CLEAR     45  34  65 S10       30.20F
FOND DU LAC    CLOUDY    54  37  52 S15       30.13F
SHEBOYGAN      MOCLDY    46  34  62 S13       30.17F
WEST BEND      CLOUDY    46  32  57 S5        30.18S
JUNEAU         MOCLDY    50  33  52 S12       30.16F
$$

LSZ147-162-201000-
LAKE SUPERIOR

STATION/POSITION TIME  TEMP    WIND        PRES    WAVE
                       AIR SEA DIR/SP/G            HT/PER
                 (UTC) (F)     (DEG/KT/KT) (MB)    (FT/S)
DEVILS ISLAND    0800   33        CALM     1017.1S
PORT WING        0800   28     180/  2/  3 1016.9R
SAXON HARBOR     0840             CALM     1015.9S
$$

LMZ867-665-643>646-201000-
LAKE MICHIGAN

STATION/POSITION TIME  TEMP    WIND        PRES    WAVE
                       AIR SEA DIR/SP/G            HT/PER
                 (UTC) (F)     (DEG/KT/KT) (MB)    (FT/S)
NORTHPORT PIER   0800   36     140/  8/ 11 1022.0F
SISTER BAY       0809   41     190/ 18/ 22   N/A
KEWAUNEE LAKESHO 0800   45     180/ 17/ 21 1022.3F
SHEBOYGAN LAKESH 0800   42     170/ 19/ 20 1022.8F
PORT WASHINGTON  0840   42     180/  6/  9 1023.0F
MILWAUKEE LAKESH 0800   46     160/ 13/ 14   N/A
KENOSHA   LAKESH 0800   44     180/ 13/ 17   N/A
$$

TC  - TEMPERATURE IN CELSIUS
VSB - VISIBILITY IN STATUTE MILES
WCI - WIND CHILL INDEX
HX  - HEAT INDEX




USA.gov is the U.S. government's official web portal to all federal, state and local government web resources and services.